GFSNW_con_lsi_000.txt.gz
Lid_Strength_Index
5 5 5 4 4 4 3 4 9 6 4 10 10 13 11 10 10 8 10 11 12 13 13 14 13 13 12 10 11 13 12 13 16 15 13 15 14 15 15 17 18 19 17 17
6 6 5 5 5 4 5 6 6 4 4 12 12 11 10 9 9 9 9 10 10 9 12 14 13 12 11 10 11 13 12 16 18 18 14 15 16 15 14 14 15 17 19 17
6 6 6 5 5 4 4 6 10 7 6 6 10 11 11 11 8 9 8 9 8 10 12 11 13 12 10 10 10 9 9 13 15 17 15 13 16 16 16 15 15 17 17 16
5 5 5 5 4 4 4 6 8 7 11 10 9 9 10 11 11 8 8 10 10 11 13 12 12 11 12 11 10 10 10 15 15 13 12 13 14 14 14 15 15 17 15 15
4 5 4 4 4 3 6 8 8 6 8 8 9 10 11 11 10 9 10 11 10 9 12 11 12 11 11 11 11 11 10 15 15 16 15 14 16 14 14 14 14 14 14 15
4 3 3 4 4 3 6 5 5 8 9 9 10 10 10 10 9 8 8 9 10 11 9 8 7 7 7 8 10 11 12 13 15 17 14 15 17 15 14 13 12 13 15 12
3 3 3 3 3 3 4 5 6 8 13 11 11 9 9 10 9 10 9 9 10 8 6 7 7 8 9 9 9 8 12 13 14 17 15 21 14 11 11 12 12 11 11 10
3 3 3 3 2 2 4 4 6 9 13 11 11 10 10 10 10 10 9 8 6 6 8 11 13 13 13 12 10 10 9 12 16 18 18 15 13 11 12 12 13 10 10 10
3 3 3 3 2 2 4 4 4 7 11 13 10 11 10 12 12 12 10 7 7 7 9 12 16 17 14 16 14 10 10 10 14 16 19 21 13 9 8 8 15 9 9 9
2 2 3 3 3 2 4 5 3 6 10 9 9 12 12 9 10 12 11 13 12 8 11 14 15 16 12 16 16 15 14 14 16 16 18 16 11 9 9 16 14 8 7 8
2 2 2 2 2 2 3 5 3 6 8 9 8 8 11 11 10 13 12 13 12 12 14 14 14 14 13 14 12 13 15 16 16 15 17 19 9 10 13 10 8 9 10 9
2 2 2 2 2 2 2 6 3 3 7 8 5 6 5 6 7 9 12 13 16 12 14 14 13 16 14 15 18 12 16 15 18 16 15 11 10 12 12 9 12 11 11 10
2 1 1 1 1 1 2 5 4 4 7 8 8 9 6 5 5 4 11 11 9 11 10 12 14 16 13 19 18 16 15 13 16 17 13 14 14 12 11 11 13 12 12 12
2 1 1 1 1 1 2 5 4 5 6 11 11 6 7 4 4 4 4 6 6 7 9 12 15 19 12 16 13 15 15 14 16 17 15 14 12 12 12 12 13 14 13 12
1 1 1 1 1 1 2 3 3 3 7 10 10 9 7 5 4 5 4 5 7 7 9 11 14 12 12 12 12 15 12 14 16 17 13 13 13 13 12 16 16 16 13 14
1 1 2 2 2 1 3 7 4 2 2 7 11 7 9 5 5 5 5 5 5 6 8 9 8 7 9 15 16 11 9 9 9 12 15 14 12 12 13 15 16 17 18 17
1 1 1 2 2 3 6 7 5 1 1 7 10 10 8 5 5 7 6 4 6 6 7 8 8 8 8 11 14 10 9 10 13 12 15 15 14 16 15 15 16 16 17 18
2 1 1 1 1 1 4 2 0 0 3 5 11 11 10 6 10 11 6 7 6 6 7 8 9 9 9 13 10 9 13 14 13 14 14 15 15 15 16 16 16 19 19 19
1 1 1 2 4 6 5 -0 -1 0 4 8 9 15 17 7 9 7 7 7 11 7 9 9 11 12 15 11 10 14 16 16 16 16 16 15 17 18 18 18 20 21 21 21
1 2 4 8 5 0 0 3 5 5 5 6 10 8 11 8 9 10 10 8 11 16 13 9 13 13 9 13 15 15 15 15 15 19 21 20 20 20 20 21 20 20 21 22
3 6 6 3 0 3 6 8 9 9 13 9 13 10 11 7 11 12 8 12 12 15 16 16 20 21 11 15 16 16 16 16 18 19 19 19 19 21 21 21 21 22 22 23
3 3 2 2 5 9 11 12 11 12 16 14 14 13 11 10 8 12 10 13 12 17 16 19 22 13 18 19 20 19 18 20 21 20 21 21 21 21 22 22 23 23 22 23
1 4 6 7 8 12 13 14 15 19 16 15 15 16 11 10 7 9 10 13 14 15 18 20 17 19 21 22 22 22 22 22 23 23 22 23 23 22 23 24 23 23 24 23
6 8 11 11 13 13 17 18 17 16 13 15 13 14 10 12 11 9 14 12 14 17 19 20 23 25 27 24 23 25 24 25 25 25 24 24 24 23 23 23 23 24 24 23
7 8 14 12 10 14 18 17 18 17 15 14 15 16 10 14 13 10 14 16 17 17 19 26 25 24 24 24 24 25 25 25 26 25 25 25 24 25 25 25 25 24 24 25
8 11 13 19 16 17 18 19 21 17 15 14 14 15 14 15 14 16 19 21 21 20 30 27 24 25 25 25 25 25 26 25 25 25 26 25 25 26 26 26 25 24 25 26
12 18 20 21 22 24 24 22 20 17 18 17 13 14 14 13 13 16 24 24 30 29 27 26 27 26 25 25 25 25 25 25 26 26 25 25 24 25 26 27 26 25 25 26

GFSNW_con_lsi_003.txt.gz
Lid_Strength_Index
6 6 5 5 5 3 2 4 9 4 3 9 10 11 11 9 9 8 9 9 10 11 11 12 12 13 11 9 10 12 12 14 17 16 14 14 14 15 15 17 19 18 17 16
6 6 6 5 5 4 5 6 7 4 4 12 11 9 9 8 9 9 9 10 9 9 11 14 12 11 9 8 9 11 11 15 18 16 14 15 14 14 13 13 16 17 19 17
5 5 6 5 5 4 5 6 10 7 6 6 10 10 10 11 7 8 8 9 8 10 12 10 12 11 9 8 8 8 8 13 15 17 14 14 16 15 14 14 16 15 16 15
4 4 5 5 5 4 5 8 10 8 11 10 9 9 10 11 11 8 8 10 10 11 13 12 12 11 10 9 8 9 9 15 14 13 13 13 13 14 13 14 13 16 14 14
4 4 4 4 4 4 7 10 10 8 8 8 9 9 11 11 10 10 10 11 9 9 12 11 13 11 11 11 10 10 9 14 13 15 13 13 15 12 12 13 14 13 12 13
3 3 4 4 3 4 8 7 7 8 11 11 10 10 9 9 9 8 8 9 10 11 10 8 9 10 9 9 11 12 12 13 15 18 14 14 17 14 13 12 11 12 14 11
3 3 3 3 3 3 6 7 7 9 13 11 11 10 9 9 9 10 9 9 10 8 6 7 7 9 9 9 9 9 12 14 14 17 15 21 14 10 10 12 10 10 10 9
3 3 3 3 3 3 6 6 7 9 14 12 12 11 11 11 10 11 10 9 7 7 8 11 12 13 11 11 10 10 10 12 16 18 18 15 13 11 11 12 13 9 9 9
2 2 2 3 3 3 6 7 5 8 12 15 11 12 11 16 16 15 12 9 9 8 11 16 19 18 15 15 13 11 10 10 14 15 19 20 12 10 8 9 15 13 12 12
1 2 2 2 2 2 5 7 5 7 11 11 11 13 13 11 13 17 16 15 14 11 15 18 18 18 13 17 16 14 13 14 16 16 18 16 12 11 9 17 17 13 13 13
1 1 1 1 1 1 3 6 4 6 9 10 9 9 12 11 13 18 17 16 16 16 18 20 16 18 15 16 15 15 15 16 16 14 17 18 10 11 16 15 12 13 14 14
0 1 1 1 1 1 1 7 4 3 7 9 7 6 6 7 8 12 15 14 18 14 18 21 20 20 18 18 20 12 17 14 17 16 16 13 11 13 13 11 13 14 14 13
0 0 0 1 1 1 1 6 5 6 7 9 8 9 6 5 5 5 11 14 9 10 10 17 18 24 16 23 22 18 14 12 14 15 13 13 13 11 10 11 12 13 13 14
1 1 1 1 1 1 1 5 5 5 7 11 12 7 8 5 5 5 5 7 7 8 10 13 17 20 12 18 15 15 14 12 16 15 13 12 12 12 13 13 15 16 16 15
1 1 1 1 1 0 1 4 4 4 7 13 11 10 8 7 6 6 6 6 7 9 10 14 16 13 11 12 11 13 10 12 14 15 11 12 12 12 12 16 17 18 18 19
1 1 1 1 1 1 4 9 5 3 4 8 12 9 12 7 7 7 7 6 6 7 8 10 9 8 9 13 20 10 9 8 8 10 11 12 12 11 11 15 15 16 18 19
1 1 1 1 1 2 6 10 6 2 2 7 11 14 12 8 9 10 8 7 7 7 7 8 8 8 7 10 13 9 8 7 10 11 12 11 11 13 13 13 14 16 18 18
1 1 1 1 1 2 6 4 1 2 4 5 11 12 10 8 12 12 7 8 7 6 7 8 9 8 8 12 9 8 7 11 12 12 12 12 12 13 13 14 16 18 19 18
1 1 1 4 6 9 6 1 0 1 5 9 10 16 19 9 10 9 11 7 12 6 9 9 11 11 14 12 9 9 13 14 15 14 15 15 15 16 16 17 18 19 19 19
1 3 6 12 6 1 2 3 6 6 5 6 10 16 16 9 11 12 10 9 11 13 13 9 11 12 8 9 14 15 15 16 16 19 19 20 20 19 19 19 18 18 19 20
4 6 8 7 0 5 6 9 9 9 13 9 14 10 12 8 13 12 8 11 11 14 16 17 25 23 11 16 18 17 17 17 18 19 19 19 20 20 21 21 20 21 21 22
4 4 2 3 5 7 10 11 10 11 15 18 16 15 11 12 8 11 10 12 13 15 20 20 22 13 20 22 21 20 20 21 22 21 21 21 20 20 21 22 23 22 22 22
3 5 8 8 8 12 14 15 16 23 20 19 18 16 11 12 8 11 12 13 14 18 19 20 18 21 22 24 23 23 22 23 22 23 22 23 23 23 23 24 23 23 24 23
6 8 11 12 14 11 13 14 17 16 18 18 17 19 13 17 11 10 13 11 14 17 19 20 28 26 27 25 23 24 24 24 24 25 24 24 24 24 24 24 24 25 25 25
8 8 14 12 12 17 20 19 19 17 16 13 15 17 10 19 15 11 15 17 19 19 20 28 26 25 24 23 23 25 25 25 26 25 25 25 25 26 25 24 23 24 25 25
7 11 13 22 17 19 19 20 21 17 16 16 17 16 14 16 16 16 18 20 21 21 33 30 25 25 25 26 26 26 25 26 26 25 25 26 26 26 25 24 24 24 24 25
11 22 25 24 24 23 26 25 21 17 20 21 17 17 17 14 17 20 26 24 31 31 28 29 27 28 27 26 26 26 26 26 26 26 26 26 25 24 25 26 26 25 25 25

GFSNW_con_lsi_006.txt.gz
Lid_Strength_Index
7 6 6 5 5 4 4 5 9 3 2 9 9 11 9 8 8 7 8 9 10 11 11 12 12 13 11 9 10 11 11 13 16 15 13 14 14 14 13 16 17 18 17 17
6 6 6 5 5 4 5 6 7 3 3 12 11 9 9 8 9 9 9 10 9 9 11 14 11 11 8 7 8 11 10 14 17 16 13 13 16 14 14 14 14 16 18 16
4 4 5 5 5 5 5 7 10 6 5 6 9 10 11 11 7 8 8 9 8 10 11 10 12 11 9 8 8 7 8 12 15 17 14 12 14 14 15 14 16 16 16 15
5 4 4 5 5 5 5 8 11 8 11 10 9 9 10 11 11 8 7 10 10 11 13 12 12 10 10 8 7 8 10 15 14 13 12 12 12 12 12 13 13 15 13 12
3 3 3 4 4 4 8 10 10 9 9 9 9 9 10 11 10 9 10 11 9 9 12 11 13 11 12 12 10 10 10 15 13 15 13 13 14 12 12 12 12 12 12 12
3 3 3 3 3 4 9 8 7 8 11 12 13 11 10 10 9 8 8 9 10 10 9 9 9 8 8 9 10 11 11 13 15 17 14 14 17 14 13 12 11 12 15 11
3 3 3 2 3 3 7 8 7 9 14 12 12 11 11 11 11 10 9 9 10 9 8 8 10 10 9 10 10 8 12 12 13 16 15 21 13 10 10 12 11 10 11 13
2 2 3 3 2 3 5 7 8 9 15 12 13 12 12 12 12 11 11 10 8 8 11 14 20 17 18 14 11 11 10 11 15 17 17 14 12 12 13 14 13 14 14 15
1 1 1 2 2 2 6 6 5 7 12 15 11 13 12 16 16 15 12 10 10 10 13 19 23 25 20 20 15 12 11 11 13 15 19 20 16 14 13 12 16 15 14 14
1 1 1 1 0 0 3 6 4 7 11 10 11 13 13 11 13 18 18 16 15 12 16 28 27 25 15 21 22 21 22 21 19 17 18 15 13 11 11 17 19 14 14 15
-0 -0 -0 -0 -0 -0 1 4 3 5 8 9 9 9 11 11 13 18 17 16 17 16 18 23 17 20 15 18 16 17 18 19 20 18 22 20 12 13 17 14 12 12 13 13
-0 -0 -0 -0 -0 0 0 5 3 2 7 9 6 6 6 6 8 11 15 14 19 14 19 22 22 24 23 22 26 15 20 16 20 17 17 12 11 11 11 9 13 13 13 13
0 -0 -0 -0 -0 -0 1 5 5 4 6 7 9 9 6 5 5 5 10 14 9 10 10 17 15 20 17 25 23 19 15 13 16 17 14 12 11 10 9 9 11 12 12 14
1 1 0 0 0 0 0 5 4 4 6 11 11 8 8 5 5 5 5 7 8 8 9 11 14 19 13 18 15 16 15 14 15 14 12 10 10 10 10 10 11 12 12 13
1 1 1 1 0 0 1 3 4 3 6 11 13 13 8 7 6 7 6 7 7 8 10 11 14 15 14 15 12 15 12 12 13 15 10 9 10 9 9 11 12 12 13 14
1 1 1 1 1 1 4 7 4 3 3 8 16 10 12 8 7 7 8 8 8 8 9 10 10 9 10 13 16 12 10 9 8 9 7 8 8 8 9 12 12 12 13 14
1 1 0 1 1 3 6 7 6 3 3 7 11 15 13 9 10 11 9 8 7 7 7 9 9 9 8 10 13 10 8 7 7 8 10 11 9 11 11 11 12 13 14 15
1 1 1 1 0 1 4 2 2 1 4 6 12 14 14 11 15 14 8 8 7 7 8 10 9 8 8 12 9 8 7 7 9 11 11 12 12 13 13 14 14 16 16 16
1 1 1 3 4 6 7 1 -0 1 5 11 16 18 15 9 10 10 12 8 11 7 9 9 9 10 13 11 9 9 14 15 16 15 15 15 17 17 16 16 17 18 18 18
1 3 6 8 7 2 2 5 7 7 7 7 14 19 18 10 12 13 13 10 11 13 12 8 10 12 8 16 16 16 17 17 18 20 20 21 20 19 19 19 18 18 19 20
5 6 8 6 2 6 8 10 11 11 12 8 10 10 11 8 12 13 8 11 11 14 16 16 26 23 13 18 19 19 18 18 19 20 20 20 20 21 21 20 20 20 21 23
5 5 4 4 6 9 11 13 13 13 13 18 16 13 10 11 9 13 11 13 12 16 23 20 22 16 21 22 22 20 20 22 23 22 22 21 20 20 21 22 23 23 23 23
3 5 8 8 9 13 14 19 21 22 19 18 17 14 10 11 9 12 13 15 17 20 21 19 17 21 22 24 23 23 22 23 22 22 21 22 23 23 24 24 23 24 25 24
7 9 12 12 16 16 17 18 20 18 16 20 17 16 13 16 13 11 16 15 17 21 21 20 28 26 28 25 23 24 24 24 24 25 25 25 25 25 24 25 25 25 25 23
7 8 12 13 19 23 23 24 19 19 17 15 16 13 9 15 12 11 14 16 20 20 20 27 28 25 24 24 24 25 26 26 26 26 26 26 26 26 26 25 24 23 23 24
8 11 14 20 19 21 22 20 18 17 15 13 12 14 13 15 13 14 17 21 22 20 34 32 28 30 29 29 28 27 27 27 27 26 26 26 26 27 26 24 23 23 24 24
14 22 26 24 22 22 25 24 21 17 19 18 15 16 17 14 15 18 22 22 31 35 34 32 31 30 29 29 29 28 28 28 27 26 26 27 27 26 24 25 24 24 24 24

GFSNW_con_lsi_009.txt.gz
Lid_Strength_Index
6 6 6 6 6 5 4 5 10 4 2 9 9 11 9 8 8 7 8 9 10 11 11 12 13 13 11 8 9 11 9 12 16 14 13 12 13 14 14 16 17 15 15 15
5 5 5 5 5 4 5 7 8 2 3 12 11 9 9 8 9 9 9 10 9 9 11 14 11 10 7 7 9 11 10 14 17 16 14 14 13 12 11 11 13 16 18 15
5 4 4 5 5 5 6 8 11 6 5 6 9 10 10 11 7 9 8 9 8 10 11 10 12 12 9 8 8 7 8 12 15 18 16 12 14 12 12 12 16 15 14 13
5 5 4 4 5 5 7 9 11 8 13 9 9 9 10 11 11 8 8 10 10 11 13 12 13 11 10 9 8 8 10 15 13 13 12 13 14 14 13 14 12 15 13 13
3 4 4 3 4 3 9 10 11 9 11 9 9 9 10 11 10 9 10 10 9 9 12 12 13 11 11 11 11 11 10 15 13 14 13 12 14 13 13 13 13 14 14 14
3 3 3 3 3 4 10 9 8 8 11 12 12 12 10 9 9 8 8 9 10 11 10 10 10 10 9 9 11 12 12 12 14 17 14 14 16 14 12 12 11 13 16 17
3 3 2 2 2 3 7 9 9 10 14 12 13 12 12 12 12 12 10 9 10 9 8 8 9 10 10 10 10 9 12 14 14 17 16 22 15 11 11 12 15 14 15 15
2 2 2 2 2 2 7 7 8 11 16 12 12 12 12 12 12 12 12 10 9 9 11 13 17 20 19 15 12 12 10 12 17 22 23 16 14 14 15 16 16 13 14 14
2 1 1 1 2 2 5 6 6 7 14 15 11 12 12 14 16 15 12 11 11 11 14 20 25 25 22 21 17 13 13 11 14 24 22 23 15 14 11 12 16 12 13 13
2 1 1 1 0 0 2 4 4 6 10 10 10 12 12 10 12 17 17 16 14 12 17 29 27 25 15 22 23 22 25 25 25 27 26 21 16 14 12 22 19 13 12 13
2 1 1 -0 -1 -1 1 3 2 5 8 8 8 8 10 10 12 17 16 15 17 16 19 24 17 22 17 19 16 17 20 25 27 28 29 25 13 14 17 15 12 11 11 11
0 -0 -0 -0 -1 -1 -1 4 2 2 6 7 7 6 5 6 7 10 15 12 18 13 18 21 21 24 23 22 26 14 21 18 22 19 20 12 11 12 10 10 11 11 11 11
0 -0 -0 -0 -1 -1 -0 3 4 4 6 7 7 8 6 5 5 5 10 11 9 10 10 14 14 18 16 23 22 18 15 13 16 18 13 13 11 10 10 10 10 10 10 11
0 -0 -0 -0 -0 -1 -1 2 3 4 6 10 11 8 8 4 5 5 5 7 8 8 8 10 13 17 12 15 15 16 14 14 16 15 13 11 11 9 9 9 9 10 10 11
0 0 -0 -0 0 -0 0 1 2 2 6 13 11 11 8 7 6 7 6 7 8 8 10 11 13 13 12 13 12 15 12 13 14 15 11 9 10 9 8 9 10 11 12 12
0 0 0 0 0 0 3 6 3 3 3 7 12 9 12 8 7 8 8 7 7 7 9 10 9 10 10 13 15 12 10 9 8 10 8 8 8 7 9 11 11 11 11 12
0 1 1 0 0 2 5 7 6 2 2 7 11 12 13 10 10 12 9 8 8 7 9 10 9 10 8 11 14 10 9 8 8 7 9 10 9 10 12 11 12 13 14 14
1 1 1 0 0 1 4 2 2 2 4 6 11 17 17 12 15 15 9 9 8 8 9 10 9 8 8 12 10 8 7 8 9 13 12 13 13 13 14 14 14 16 16 15
1 1 1 2 3 6 6 0 0 2 5 10 11 17 18 11 12 11 12 8 11 7 10 9 9 10 13 11 9 10 16 16 17 16 16 16 17 17 16 17 17 18 17 17
1 3 6 8 6 2 1 4 6 6 7 7 12 20 20 11 13 18 16 10 11 13 11 9 10 12 8 15 17 17 18 18 18 20 19 21 21 19 19 19 18 18 18 19
4 7 8 6 2 5 7 10 11 10 12 10 15 14 14 11 17 16 9 11 10 14 16 14 17 21 13 18 20 19 18 19 20 20 20 20 20 21 20 20 20 21 21 22
4 4 4 4 6 8 11 12 11 12 16 20 14 12 11 14 9 10 9 11 11 15 19 20 25 16 22 22 22 21 20 22 23 22 22 21 20 20 21 23 23 23 23 23
3 5 8 8 9 13 15 19 18 19 23 22 20 17 12 8 7 9 10 13 15 19 22 21 18 22 23 25 24 23 23 23 22 23 22 23 23 23 24 25 24 25 25 25
7 9 13 12 14 13 18 21 19 18 19 21 20 20 12 11 11 10 14 13 17 20 22 21 27 27 29 26 25 28 25 25 25 26 25 25 25 25 25 25 26 26 26 24
8 8 14 14 21 25 27 28 24 21 19 17 18 17 9 12 11 10 12 15 16 19 20 26 28 26 28 27 28 30 28 27 27 27 27 27 26 27 26 26 26 25 24 23
7 10 13 17 21 24 23 25 19 17 15 16 14 12 13 13 12 14 17 19 21 19 30 29 27 31 31 32 31 29 28 29 28 28 28 27 27 27 27 26 26 24 23 24
14 17 21 18 20 20 23 20 19 17 17 21 16 16 17 13 15 17 19 20 26 30 33 34 33 33 32 33 32 31 31 31 30 30 29 28 28 28 28 26 24 24 24 23

GFSNW_con_lsi_015.txt.gz
Lid_Strength_Index
7 7 7 6 6 5 5 8 13 5 1 8 8 11 9 7 8 7 8 9 10 11 11 12 12 12 10 8 9 11 9 13 16 14 11 12 12 12 13 17 18 16 17 17
6 6 6 6 5 5 7 9 9 4 2 12 11 9 9 8 9 9 9 10 9 10 11 14 11 11 8 8 9 11 10 14 17 16 13 12 13 12 12 12 14 17 19 17
7 6 6 6 6 5 8 10 14 10 5 8 9 11 11 10 8 8 8 9 9 10 11 10 12 12 9 8 9 7 8 13 15 18 15 13 15 13 12 13 17 16 16 15
5 6 7 7 6 4 9 12 13 11 15 12 9 9 11 12 12 9 8 10 10 11 13 13 12 11 10 8 8 9 10 14 13 13 12 13 13 14 14 15 15 17 15 14
4 5 5 5 5 5 11 13 14 12 12 11 12 10 12 12 11 10 11 11 10 10 11 11 13 11 11 11 10 10 9 14 14 16 12 12 14 13 13 13 13 13 13 14
3 4 3 4 4 6 12 12 11 11 13 13 14 14 12 13 12 10 11 11 12 13 10 9 9 9 10 10 11 12 12 13 14 16 14 15 19 16 14 13 12 13 15 15
3 3 3 3 3 4 8 10 11 15 18 14 13 13 12 13 13 13 12 12 12 10 9 10 11 11 11 11 11 10 12 13 13 16 20 21 15 14 13 14 14 15 15 15
2 2 2 2 2 3 6 7 11 15 19 13 13 13 13 13 14 13 13 12 12 11 13 16 23 23 20 16 12 12 11 13 19 19 19 17 15 15 16 16 17 15 16 15
2 2 2 1 2 2 5 6 7 9 16 17 12 14 13 17 18 17 14 12 13 11 14 20 25 26 22 22 18 14 12 11 14 21 22 29 18 16 15 13 21 16 17 17
2 2 2 2 1 1 4 5 5 8 12 12 12 14 14 13 14 18 18 16 15 12 15 25 24 24 15 22 23 22 25 24 17 17 19 20 16 14 13 23 20 16 16 14
2 2 2 2 2 1 2 4 4 7 10 11 11 10 13 13 14 17 16 15 16 16 20 22 17 21 17 18 16 17 18 24 29 30 27 23 13 14 17 14 12 12 13 12
2 2 2 2 2 2 2 6 4 4 8 9 9 8 8 8 9 11 13 12 16 11 17 19 18 23 21 20 22 13 19 17 20 19 20 13 12 12 10 10 11 11 12 11
2 2 2 2 2 2 2 6 5 5 8 8 9 9 7 7 6 4 11 14 9 10 9 13 14 17 15 23 22 18 15 14 15 15 13 13 11 10 9 10 10 10 10 10
1 2 1 1 1 1 1 4 3 4 6 10 11 8 8 5 5 5 5 7 8 8 8 10 13 17 11 15 14 15 13 14 16 15 12 11 11 10 9 9 9 10 10 10
0 0 0 0 0 0 1 3 3 2 5 9 9 9 8 6 5 6 6 6 7 8 9 11 12 12 11 13 12 14 11 13 14 15 11 11 11 9 9 10 10 12 12 12
-0 -1 -0 -1 -1 -1 2 6 3 1 2 6 10 8 12 8 7 7 7 6 7 7 8 10 10 9 10 13 16 12 10 10 9 11 9 9 9 10 12 12 12 13 13 13
-1 -1 -1 -1 -1 1 4 6 5 1 1 6 10 13 12 9 10 12 9 7 6 7 8 10 10 10 8 11 15 11 9 9 9 8 9 10 9 11 13 13 13 14 15 15
-0 -1 -1 -1 -1 -1 3 2 0 1 4 6 10 15 17 12 14 13 9 9 8 8 9 10 10 10 10 14 11 9 9 8 8 13 13 13 14 14 14 15 16 17 17 17
-0 -1 -1 0 2 5 5 -0 -1 1 5 9 10 14 19 12 13 12 12 9 12 8 11 10 11 15 15 13 10 10 9 13 15 16 16 16 16 17 17 18 19 19 18 18
-0 1 4 6 5 0 0 3 5 5 6 7 11 16 15 11 14 17 13 11 12 14 13 10 12 14 10 11 17 17 18 18 17 17 19 21 22 20 19 20 19 19 19 20
3 6 7 4 1 5 6 8 9 10 13 9 12 15 17 12 15 15 10 12 11 15 16 15 24 22 12 18 20 19 19 19 21 20 20 20 21 21 21 20 20 20 21 22
3 4 3 3 5 8 10 11 12 14 17 20 18 15 11 11 9 12 11 13 12 16 23 19 24 16 21 21 21 21 21 22 23 23 23 22 21 22 22 23 23 23 22 23
3 5 8 8 8 13 14 17 21 21 22 21 18 15 12 10 9 10 11 14 15 19 19 21 19 20 24 25 23 24 23 24 24 24 24 24 24 24 25 25 24 25 25 26
7 9 13 12 13 12 18 18 17 16 17 17 16 17 13 11 11 10 14 13 16 21 23 22 20 26 26 25 25 27 27 28 27 28 27 26 26 26 26 27 26 27 28 27
8 9 13 12 21 26 30 31 21 22 18 14 15 15 10 12 12 11 13 17 19 21 20 22 27 27 25 27 29 31 30 30 31 31 31 29 28 29 29 29 30 30 30 30
7 11 14 19 18 24 25 27 23 22 15 17 14 14 13 14 14 14 16 20 22 18 27 30 27 28 29 30 31 29 33 35 34 33 33 30 30 31 30 31 31 31 31 29
13 17 20 18 17 15 19 20 21 16 16 19 17 17 16 13 14 19 21 20 22 31 33 27 26 26 26 28 34 34 36 35 34 37 36 35 34 37 37 34 29 30 27 25

GFSNW_con_lsi_021.txt.gz
Lid_Strength_Index
6 7 8 8 7 5 5 7 12 4 2 10 9 12 11 10 10 8 9 8 9 10 9 11 11 11 9 6 7 10 8 11 15 12 8 7 9 11 11 16 17 14 16 17
6 6 7 8 7 6 5 8 7 3 3 12 11 10 10 9 9 9 8 9 8 7 10 12 10 9 6 6 8 9 9 13 17 14 10 10 12 11 10 11 13 17 19 16
6 6 6 6 7 6 5 8 12 7 6 6 8 9 9 9 7 8 7 8 7 9 10 9 10 9 7 7 7 7 8 12 14 17 13 11 13 12 11 13 16 16 15 14
6 6 6 6 6 7 6 9 12 9 12 9 8 8 9 10 11 8 8 9 8 9 11 10 11 9 8 7 7 7 8 14 12 11 10 10 12 12 11 13 12 16 13 13
6 6 6 7 7 7 8 11 10 8 8 8 9 9 10 11 10 10 11 10 9 8 10 10 12 10 9 10 8 9 8 13 11 14 11 11 12 11 11 11 11 11 11 11
6 6 6 6 5 7 9 8 7 9 11 10 10 10 10 10 9 9 9 9 10 11 9 8 9 8 8 8 10 10 11 11 13 16 13 13 16 14 12 11 10 10 12 10
6 5 3 3 4 5 6 7 7 11 13 11 11 11 10 10 9 10 10 9 10 9 7 8 9 9 10 10 10 9 12 12 12 16 15 21 14 10 10 12 11 10 10 11
3 3 3 3 3 3 5 5 7 9 12 11 11 11 10 9 9 10 10 9 8 7 10 13 14 15 15 14 12 12 10 12 15 17 18 15 14 11 12 12 13 9 9 10
3 2 2 2 3 2 3 5 4 7 10 11 10 11 10 11 11 12 11 9 8 8 10 13 18 18 17 17 15 13 12 11 14 15 19 20 14 10 10 9 15 9 9 10
1 2 2 2 2 2 2 4 3 6 10 8 9 10 11 9 10 11 11 11 11 9 13 15 17 17 14 18 18 16 16 15 16 16 16 14 10 10 9 15 13 8 8 9
1 1 1 1 1 1 2 4 2 5 8 7 7 7 9 9 9 11 12 12 12 12 14 15 15 16 14 16 14 15 16 16 16 15 17 19 9 10 13 9 8 8 8 8
1 1 1 1 0 0 1 5 3 3 8 7 5 5 5 6 6 8 11 9 11 10 12 12 12 14 14 15 18 12 16 13 14 13 13 8 8 8 7 6 7 7 7 7
1 1 1 1 1 1 1 3 3 5 8 8 8 8 5 5 5 4 9 9 8 9 7 8 11 13 12 16 15 12 10 9 12 12 10 9 8 7 6 6 7 6 6 6
1 1 1 1 0 0 1 3 2 4 7 10 9 6 6 4 4 5 5 5 6 6 6 9 10 12 9 11 10 10 9 9 11 10 9 8 8 7 7 6 6 6 6 7
0 1 1 1 1 1 1 1 3 3 7 10 9 8 6 5 5 5 4 5 5 6 8 9 10 8 9 8 9 11 8 10 11 12 8 8 8 6 6 7 7 7 7 9
-0 -0 -0 -0 -1 -1 1 6 2 2 3 7 10 4 6 5 5 5 4 4 5 5 7 8 7 6 8 11 12 9 7 7 6 8 6 6 6 6 5 6 6 8 10 10
0 -0 -1 -1 -1 -0 4 5 2 0 1 6 9 9 6 6 5 5 5 4 5 5 7 8 7 7 7 10 12 8 7 6 6 6 6 8 7 7 6 8 10 11 12 13
0 0 -0 -1 -1 -0 2 1 0 -0 3 5 9 9 9 6 9 8 6 7 6 6 7 6 8 7 8 11 9 7 6 6 6 6 6 7 8 9 12 12 13 14 14 14
0 0 0 1 2 5 4 -1 -1 -0 3 8 8 10 11 8 8 7 8 6 9 6 8 8 7 9 12 9 8 7 7 7 7 8 12 12 12 11 13 14 15 15 15 15
1 1 5 7 5 0 -0 3 5 5 5 5 9 6 9 8 9 10 8 8 9 11 9 7 10 11 7 7 6 7 11 12 12 13 14 15 15 14 15 16 16 16 16 17
4 5 6 3 1 3 5 8 8 8 9 7 7 7 10 8 10 10 8 9 9 13 10 11 11 12 9 7 10 14 14 15 17 16 16 17 17 16 17 17 17 18 18 19
3 3 3 3 5 7 9 10 8 9 11 9 10 9 7 9 7 9 9 11 10 14 11 12 13 10 12 14 16 17 17 18 20 19 19 19 19 19 20 20 20 20 20 20
4 5 6 7 7 11 12 13 12 12 12 12 11 11 8 8 7 9 10 12 13 12 13 14 11 11 17 19 20 22 22 21 21 22 21 22 22 22 22 22 21 22 22 22
7 8 11 10 11 11 10 10 9 8 8 10 8 10 10 8 10 9 12 11 13 15 16 14 10 12 20 21 21 23 24 23 23 23 23 23 23 23 23 23 23 24 24 23
8 8 12 11 11 13 15 17 12 11 7 9 10 10 9 10 11 10 12 15 16 14 14 10 13 20 22 23 23 24 24 24 24 24 25 24 24 24 24 24 24 24 25 25
7 8 12 14 11 13 15 16 12 14 9 8 8 11 12 12 11 13 14 15 16 12 11 17 21 23 22 23 24 25 25 25 25 25 25 25 26 26 25 27 27 26 25 26
12 14 16 13 13 13 13 13 13 12 10 11 11 13 14 11 13 14 11 13 10 15 19 20 21 23 24 25 25 26 27 26 27 27 27 27 26 29 28 27 22 24 22 25

GFSNW_con_lsi_024.txt.gz
Lid_Strength_Index
7 7 7 7 8 7 7 8 13 6 3 10 10 12 11 10 10 9 9 10 11 11 11 11 11 12 10 7 8 11 9 12 16 13 9 8 9 11 12 17 17 15 16 16
7 7 7 7 7 6 7 11 10 5 4 13 13 10 10 9 10 9 9 10 9 8 10 13 10 10 7 7 8 10 10 14 17 16 13 11 13 11 11 11 14 17 19 17
6 6 7 7 6 7 6 9 13 9 8 8 11 11 10 10 7 8 8 8 8 9 11 9 11 10 8 7 8 7 8 12 15 18 15 12 14 12 11 13 16 16 15 14
6 6 6 6 7 8 8 10 13 10 13 12 10 9 10 11 11 9 8 9 9 10 12 11 11 10 9 8 7 8 9 14 13 12 11 11 13 13 13 13 12 15 13 12
6 6 6 6 6 8 9 12 12 12 11 10 10 10 12 12 11 10 11 10 10 10 11 11 14 12 11 11 10 10 10 17 14 18 13 12 14 14 13 13 12 12 12 12
5 5 6 6 6 7 10 10 10 11 11 12 12 12 12 11 9 9 9 10 11 12 11 11 10 10 10 10 12 13 13 16 21 22 15 16 21 16 14 14 12 13 15 13
5 5 5 5 6 7 9 10 10 13 15 13 12 13 10 10 10 11 10 10 11 11 9 9 11 12 11 12 11 10 14 17 18 22 21 27 16 13 13 14 13 14 14 16
5 5 6 5 6 6 9 9 11 12 15 12 13 12 12 11 10 12 11 10 10 9 11 15 19 20 19 16 13 13 11 13 17 23 24 18 15 14 14 16 16 13 14 12
4 4 4 4 4 3 5 7 6 9 13 13 11 12 12 13 13 14 13 11 10 11 12 17 24 25 20 21 18 14 13 13 17 24 25 28 18 14 12 13 19 14 14 15
3 2 3 3 3 3 4 5 5 8 12 10 11 13 12 11 11 14 14 14 13 11 14 21 22 23 15 21 22 22 23 22 19 19 21 20 15 14 12 21 17 13 13 12
1 1 1 1 1 1 3 5 4 7 10 10 9 8 11 11 11 15 15 14 14 15 18 19 16 20 16 18 16 17 19 23 24 24 25 22 13 13 15 12 9 9 9 10
1 1 1 1 1 1 1 5 3 3 7 9 6 6 6 7 7 10 13 12 15 12 15 16 16 21 18 19 25 14 20 17 20 18 18 11 10 10 8 8 10 9 9 9
1 1 1 1 1 0 1 4 4 5 9 8 9 9 5 5 6 5 12 11 9 10 9 12 14 19 15 22 19 17 15 13 15 15 13 11 9 8 8 7 8 8 8 9
1 1 1 1 1 1 1 3 3 5 7 10 11 6 7 4 5 6 6 7 8 8 9 11 13 17 12 14 13 14 13 13 14 13 10 9 8 8 7 7 7 8 8 8
1 1 1 1 1 1 1 2 2 3 7 10 12 10 7 5 5 6 6 7 9 9 11 11 13 12 11 10 10 12 10 11 12 13 9 9 8 8 8 8 8 8 9 9
1 0 -0 -0 -0 -0 2 7 3 3 3 8 11 8 11 8 6 6 7 7 8 8 9 10 9 8 9 11 12 9 8 8 8 9 7 7 7 7 7 8 8 8 9 10
1 0 0 -0 -1 0 4 6 3 0 2 7 10 10 9 8 8 9 8 6 6 7 7 8 8 8 7 10 12 9 8 8 7 6 6 8 8 8 8 9 10 12 13 13
1 1 0 0 -1 -0 3 2 1 0 4 6 10 10 12 8 9 10 7 7 6 6 7 8 9 8 8 11 9 8 7 7 7 7 7 8 10 11 12 12 13 16 15 15
1 1 0 2 3 5 5 -0 -0 1 4 8 9 12 14 9 10 8 8 7 10 7 10 9 9 11 12 11 9 8 7 7 7 11 13 14 14 13 14 15 16 16 15 16
1 2 6 7 5 0 0 3 5 6 6 6 9 11 12 9 11 10 10 10 11 14 11 9 11 12 9 8 7 7 10 12 12 15 16 19 18 15 16 17 16 16 17 17
4 6 7 5 1 3 5 8 9 8 10 8 9 9 14 10 13 11 8 12 12 15 15 13 17 17 10 7 7 13 13 14 17 16 17 17 18 17 18 18 18 19 20 20
4 4 4 5 5 7 9 10 10 10 12 11 13 11 8 10 8 10 10 12 11 14 15 14 19 14 11 15 17 18 18 19 21 20 19 19 18 20 20 21 22 22 21 22
4 6 8 8 8 11 12 14 16 18 14 13 14 12 9 9 8 10 11 13 14 12 14 18 17 14 19 21 22 23 23 23 22 22 23 23 23 24 25 25 25 25 26 27
8 10 13 12 13 12 12 16 16 13 12 12 10 11 12 10 11 10 13 12 15 16 19 21 17 15 20 23 24 25 26 24 23 25 25 25 25 25 26 27 27 28 28 27
10 9 14 13 15 17 20 19 15 14 11 9 10 10 9 12 12 10 13 16 17 18 20 16 18 23 24 25 27 27 27 27 28 27 27 26 27 28 29 30 30 31 30 30
9 10 12 18 17 18 19 19 16 14 10 10 9 11 12 13 12 14 15 17 20 18 17 22 24 27 27 27 28 28 28 28 30 31 30 28 29 30 31 34 33 32 32 31
11 16 21 17 13 12 15 17 14 12 11 13 11 13 14 11 14 15 15 19 18 24 24 23 25 27 29 30 30 32 33 33 33 33 33 33 33 35 35 34 31 32 30 29

GFSNW_con_lsi_027.txt.gz
Lid_Strength_Index
5 5 5 5 5 5 6 9 12 6 4 11 11 13 11 10 11 9 10 11 12 12 12 13 14 13 11 10 9 11 10 12 17 14 11 10 10 11 12 17 17 16 16 16
7 7 6 5 5 5 8 11 11 7 6 14 13 11 11 10 11 11 11 12 11 10 12 13 12 10 9 8 9 10 9 14 21 18 14 11 13 11 11 11 13 17 19 17
7 7 7 7 6 7 8 11 14 11 9 9 12 12 12 12 10 11 10 11 10 11 11 10 12 12 9 8 8 7 8 12 17 18 16 12 15 13 13 12 16 18 17 16
6 7 7 8 7 8 8 11 14 11 14 12 11 10 11 12 13 10 10 11 10 11 13 12 13 11 10 9 7 9 10 16 14 13 13 14 14 14 14 14 13 16 14 13
5 5 5 6 7 7 9 12 13 13 12 10 10 11 12 13 12 11 12 12 10 11 12 13 14 12 12 12 11 11 11 18 15 19 14 14 15 15 14 14 14 14 13 14
5 4 5 6 6 8 12 12 11 12 12 13 12 12 12 12 12 12 11 10 11 12 13 11 11 11 12 12 13 14 14 17 21 24 16 17 22 17 15 14 13 15 17 14
5 4 4 6 6 8 11 11 12 14 16 13 12 12 11 12 12 13 13 12 13 12 10 12 13 14 13 13 13 12 15 18 21 25 24 26 17 15 15 15 14 16 16 17
5 4 4 5 6 6 11 10 12 14 18 14 14 15 15 14 13 14 13 13 11 11 13 16 21 21 19 17 14 14 12 14 22 23 26 20 16 15 16 17 17 15 16 14
3 5 5 5 5 5 9 10 9 12 16 17 14 15 15 16 16 15 14 13 12 12 13 19 25 24 21 22 19 14 13 12 16 28 25 27 18 15 13 14 20 17 18 16
2 2 3 4 4 3 7 9 9 12 16 14 13 15 14 12 14 16 16 15 14 12 16 26 24 23 16 22 24 23 24 25 18 18 21 22 16 14 13 23 19 17 16 15
1 2 2 2 3 3 5 7 6 9 14 12 11 11 12 13 13 16 16 16 16 16 21 21 17 22 17 20 18 19 20 22 25 27 28 23 14 15 17 14 12 12 12 12
1 1 1 1 2 2 2 6 5 5 10 12 7 8 8 9 9 13 17 15 18 13 18 20 19 23 22 22 24 15 20 17 21 19 20 14 13 12 11 10 12 11 11 10
1 1 1 1 1 1 2 4 4 6 9 9 10 12 7 6 7 7 13 15 11 11 11 16 17 22 16 23 22 19 16 15 17 18 15 13 12 11 9 9 9 8 8 9
1 1 1 1 1 1 1 4 4 5 8 15 14 8 9 6 6 7 7 9 9 9 10 15 17 21 13 18 15 16 14 15 17 16 13 11 11 10 9 8 8 8 8 8
1 0 0 1 1 1 1 2 3 4 8 12 15 12 9 7 6 7 7 8 9 11 11 12 15 14 14 16 13 15 12 13 14 15 11 10 9 8 8 8 8 8 9 9
1 1 0 0 0 0 3 7 3 3 3 9 12 9 13 9 7 7 8 8 9 9 10 11 12 11 11 15 19 11 10 9 9 10 8 8 7 7 8 8 8 8 9 9
1 1 1 0 -0 1 5 6 4 1 2 7 11 11 11 9 9 10 9 8 8 8 9 10 11 11 8 11 14 11 9 8 8 8 8 9 8 9 8 8 8 11 12 13
1 1 1 1 0 1 4 3 1 0 4 6 10 11 13 10 10 10 7 8 7 7 8 10 10 8 8 12 11 8 8 8 8 7 7 7 7 10 11 12 13 15 14 15
1 1 1 3 5 7 5 0 -0 1 4 9 10 14 19 9 10 9 9 8 10 7 9 11 9 13 13 12 9 9 8 8 8 9 13 13 11 11 13 15 16 15 16 16
1 2 6 8 6 1 1 3 6 6 6 7 10 17 14 11 13 15 12 10 11 13 12 9 11 12 9 8 8 9 9 10 11 14 15 18 17 14 15 15 16 16 16 17
4 6 7 6 2 4 6 9 9 10 11 9 13 11 14 13 14 15 10 13 11 14 13 13 16 18 11 8 8 9 11 13 17 15 16 17 17 16 17 18 19 19 19 21
4 4 4 5 6 7 10 11 13 12 16 17 13 15 12 11 10 12 11 13 12 15 16 16 20 13 12 11 14 17 16 18 20 20 19 18 18 19 19 20 21 22 23 23
4 6 8 9 11 12 16 20 14 21 15 14 17 14 11 9 9 11 11 13 14 14 13 16 17 16 16 19 20 23 23 23 23 23 23 23 23 24 24 25 25 26 27 29
9 10 13 13 17 16 15 20 18 14 15 14 15 13 13 12 11 10 13 12 13 16 17 20 20 15 16 21 22 24 25 25 24 26 25 25 26 26 27 27 28 29 29 29
10 10 15 15 18 22 23 23 18 15 13 10 11 14 10 12 12 11 13 16 17 18 20 19 16 19 21 23 24 26 27 27 28 29 28 27 27 27 30 33 33 33 32 32
9 12 14 20 20 22 23 23 19 15 10 9 9 11 12 13 12 13 15 17 20 19 20 25 24 24 24 25 25 28 29 29 30 31 30 29 30 31 32 36 35 35 34 33
11 16 29 21 13 14 16 20 16 13 10 12 12 14 14 11 14 15 13 16 19 27 27 24 25 24 26 27 27 31 31 32 33 36 35 34 36 38 35 29 32 35 35 33

GFSNW_con_lsi_030.txt.gz
Lid_Strength_Index
2 3 4 4 4 5 6 9 12 7 5 11 11 13 11 10 11 10 11 11 13 14 13 14 15 15 13 11 11 13 12 13 19 15 13 12 12 13 13 17 18 17 17 17
4 4 3 3 4 4 8 10 11 7 6 13 14 12 11 11 12 11 11 12 11 11 12 14 13 14 12 11 11 12 11 16 22 18 15 12 14 13 13 13 14 19 19 17
5 6 5 4 6 6 7 11 14 11 9 10 12 13 13 12 10 11 11 11 11 12 13 13 15 14 12 10 10 8 9 15 17 18 18 14 16 14 14 13 18 18 16 15
5 6 6 7 7 7 8 11 13 12 15 13 12 11 12 13 13 11 10 12 12 12 14 14 14 13 12 11 9 10 11 15 15 15 14 13 14 14 14 15 15 17 15 15
5 5 6 7 7 7 10 13 14 13 13 11 12 12 14 14 12 12 13 12 11 11 13 13 15 12 12 13 12 12 13 18 16 19 14 14 16 15 15 14 14 14 13 14
4 4 5 5 6 7 11 12 12 13 14 13 13 14 13 13 11 11 11 10 12 13 12 12 13 13 13 12 13 14 14 17 21 22 18 19 23 19 16 15 15 15 17 14
4 4 5 6 5 6 10 10 11 13 15 14 13 13 11 12 12 12 13 12 11 13 13 14 14 15 15 14 13 12 15 18 19 24 25 29 18 16 16 16 15 16 16 17
4 4 4 5 5 6 10 10 11 13 16 13 14 14 13 13 12 15 15 14 13 12 14 17 20 21 18 18 16 15 13 16 20 22 26 21 17 16 17 17 18 16 16 16
4 4 4 4 4 5 10 10 10 12 15 16 13 14 14 16 16 17 16 14 13 13 15 18 22 23 21 23 20 16 14 14 17 27 28 27 18 17 14 14 21 18 17 16
3 3 3 4 3 4 8 10 9 11 16 14 14 16 15 14 15 17 16 16 15 13 17 21 23 23 18 23 24 24 22 17 18 19 26 23 17 14 13 22 19 18 16 15
1 2 2 3 3 3 7 9 9 11 16 14 13 13 14 15 15 17 17 15 15 16 17 20 18 22 18 20 19 19 20 21 22 22 22 24 14 14 17 14 13 13 14 13
1 1 1 1 2 2 4 8 7 8 14 14 11 11 10 11 10 13 16 14 17 14 17 20 18 22 22 21 23 15 20 17 21 19 19 14 13 12 11 12 13 12 13 12
1 1 1 1 1 1 2 5 7 7 10 11 10 12 8 7 8 8 13 14 12 12 11 16 18 22 17 23 22 20 16 15 17 18 15 14 12 11 11 11 11 10 10 10
0 0 1 1 1 1 1 4 4 6 8 14 14 9 10 7 7 8 9 10 10 10 11 16 19 21 13 18 16 17 15 15 17 17 14 13 13 12 11 10 10 9 9 9
1 0 0 0 0 0 1 3 4 4 9 13 16 12 9 8 8 8 8 9 11 13 15 18 19 15 14 16 13 17 13 14 15 16 11 12 12 11 10 10 9 9 9 9
1 1 1 0 0 -0 3 7 4 3 4 9 16 11 13 9 8 9 10 9 11 12 10 15 14 11 11 14 15 12 11 11 10 10 8 9 9 9 9 9 9 9 9 9
1 1 1 1 0 1 6 7 5 2 3 8 12 14 13 10 10 13 11 9 11 9 9 11 12 12 9 12 16 11 11 9 8 8 8 9 8 9 8 8 8 10 12 12
1 1 1 1 0 0 3 2 1 0 5 7 10 13 15 10 11 11 9 8 8 8 8 10 11 9 9 13 12 10 8 8 8 8 7 7 7 10 10 11 13 14 13 15
1 1 1 3 5 6 6 0 -0 1 4 9 10 17 19 10 10 9 9 7 10 7 10 11 9 12 14 13 11 9 9 8 8 9 12 12 11 9 12 14 16 15 14 15
0 3 6 8 6 2 1 3 5 6 6 6 12 16 19 12 13 12 11 10 11 13 11 10 11 12 10 10 11 9 9 8 10 12 12 18 17 14 15 15 16 15 15 16
4 6 7 5 2 5 6 9 9 9 11 9 15 15 16 12 15 13 10 13 11 15 14 14 16 17 12 9 9 8 8 10 11 12 15 16 15 15 15 17 18 19 20 22
4 4 4 4 6 8 11 11 12 11 17 18 12 16 12 13 12 13 11 14 13 16 17 17 20 14 11 12 10 9 14 15 18 19 18 18 18 18 18 20 22 23 23 23
4 6 9 9 10 13 13 16 18 18 19 14 15 14 12 10 9 11 11 14 15 14 14 17 17 13 15 13 17 21 21 21 22 23 22 23 24 24 25 25 26 26 27 30
8 10 13 13 14 16 15 20 18 15 16 15 15 12 13 11 11 10 14 12 13 16 17 20 13 16 15 20 23 22 24 23 23 25 25 25 25 27 27 28 29 29 29 31
10 10 14 13 20 23 25 25 19 17 16 11 13 14 10 13 12 11 13 16 17 16 20 19 20 22 21 24 25 25 25 26 28 29 28 27 27 28 32 35 35 33 33 33
9 12 16 23 21 23 24 24 20 17 12 11 11 12 12 13 12 14 15 17 19 18 20 25 23 22 23 24 24 26 26 26 28 29 29 29 30 30 32 37 37 36 35 33
10 16 30 25 23 19 22 20 17 13 11 13 12 13 14 11 13 15 17 20 21 23 23 25 24 24 25 26 26 26 27 29 28 30 30 31 33 38 35 31 32 36 35 36

GFSNW_con_lsi_033.txt.gz
Lid_Strength_Index
1 1 1 2 3 3 5 8 11 7 4 10 10 12 11 10 11 10 11 12 12 13 14 14 15 15 14 12 12 14 13 15 19 16 15 15 14 15 14 17 19 19 18 18
3 2 2 2 2 3 6 10 11 7 7 13 14 12 11 11 12 11 11 12 12 12 13 15 15 15 13 13 12 13 12 17 23 19 17 15 16 15 14 15 17 22 20 19
4 4 3 3 3 4 7 11 13 11 10 10 12 13 13 13 10 11 11 12 12 13 14 14 15 15 13 12 12 10 10 16 17 17 18 16 17 16 15 16 19 19 17 16
5 4 4 5 5 5 7 10 13 11 15 13 12 11 12 13 14 11 11 12 12 13 15 14 15 14 13 12 11 13 13 19 17 17 16 16 16 16 16 17 16 16 15 15
5 5 5 5 6 6 10 13 13 13 12 11 12 12 13 13 12 12 13 12 11 11 14 14 15 14 14 14 14 14 14 18 17 20 15 15 16 15 16 15 15 15 15 15
3 5 5 5 5 6 11 11 11 13 13 12 13 13 12 12 11 12 11 11 12 12 12 12 13 12 12 12 14 15 16 17 18 18 19 19 21 19 16 15 15 15 17 14
3 3 4 4 5 6 8 10 11 14 15 14 13 13 12 13 12 13 13 12 12 14 14 13 14 16 16 14 15 13 15 16 18 22 22 24 18 19 18 17 15 17 17 18
2 3 3 4 5 6 9 9 12 14 16 14 14 14 14 12 13 16 15 15 14 13 14 16 18 19 18 18 16 15 15 16 21 20 26 21 18 18 19 19 18 16 15 14
3 3 2 3 4 6 8 9 8 11 15 15 13 14 14 15 15 17 16 15 14 14 16 17 20 22 20 22 21 17 15 15 16 25 25 26 19 19 17 16 21 18 16 16
2 2 2 3 3 4 9 10 9 12 15 14 12 14 14 13 14 16 16 16 15 15 18 21 22 22 19 23 24 23 22 19 18 22 20 22 19 16 15 22 19 18 16 15
1 2 2 2 2 4 7 9 9 13 15 14 13 13 14 15 14 16 16 16 16 17 17 18 20 22 21 22 21 21 22 22 23 23 23 24 15 15 17 14 14 14 14 14
1 1 1 1 2 3 5 10 8 9 15 14 11 11 11 12 12 15 16 15 17 15 18 20 19 22 23 23 25 18 20 18 20 19 19 14 13 13 11 12 13 13 13 12
1 1 1 1 1 1 3 7 8 8 13 14 12 13 11 10 11 11 15 17 15 15 14 18 18 21 18 25 23 20 17 16 18 18 16 15 13 11 11 11 12 11 11 11
1 1 1 0 1 1 2 5 5 7 10 17 15 11 11 8 9 10 10 11 12 12 12 17 19 21 14 18 16 17 16 16 18 18 14 13 12 12 11 11 11 11 11 11
0 0 1 0 0 0 1 3 4 4 10 15 17 13 10 9 8 9 9 10 11 13 15 18 19 15 15 17 15 18 15 15 17 18 12 12 12 11 11 11 11 10 10 11
0 0 0 1 0 0 3 8 4 4 5 10 16 11 13 11 10 10 10 10 11 12 13 15 14 12 13 19 22 13 12 13 12 12 10 10 10 10 10 11 10 9 10 10
-0 0 1 0 0 2 7 7 5 2 3 9 13 15 13 11 11 13 11 11 12 12 12 15 13 12 11 13 20 13 12 11 11 9 9 10 9 9 9 9 9 10 12 12
-0 -0 1 1 0 1 5 3 1 1 5 7 11 16 15 9 12 12 11 11 11 11 10 12 14 11 11 16 13 11 11 10 10 10 9 8 8 11 10 11 13 13 12 13
-1 -1 -0 2 4 6 5 1 1 2 6 10 11 17 19 10 10 10 10 9 12 9 11 12 10 13 15 14 12 12 10 9 9 9 11 11 11 10 11 13 16 14 13 16
-1 2 5 8 6 2 1 3 6 6 7 7 14 19 20 12 13 13 12 11 13 13 12 10 11 13 11 11 12 10 9 8 9 14 15 19 16 13 13 14 15 14 16 17
4 6 8 6 2 5 8 9 10 9 11 9 16 17 16 12 15 16 10 13 13 15 16 13 14 18 12 10 10 9 9 10 12 10 10 13 13 13 14 17 18 18 19 22
4 4 3 4 6 9 11 11 13 12 16 16 14 17 14 16 14 15 12 13 13 16 17 15 19 15 11 13 10 9 8 11 13 16 15 17 17 18 17 19 22 23 23 23
4 6 8 8 9 12 14 15 17 18 20 15 14 15 12 12 11 12 13 15 16 15 15 16 17 12 16 13 13 19 23 21 20 22 22 22 23 24 24 25 25 26 27 31
8 10 13 12 14 14 13 20 19 16 17 16 16 13 13 12 12 11 14 13 15 17 17 20 15 19 21 21 24 24 25 24 22 24 24 25 25 27 27 28 28 28 29 33
9 9 14 14 19 23 26 27 22 18 18 13 14 14 11 14 12 11 12 16 17 16 20 20 23 24 25 25 27 28 26 26 28 28 27 27 27 28 32 35 32 30 30 31
9 11 14 22 20 23 22 23 19 16 11 11 11 13 12 13 13 15 15 17 20 19 24 27 26 27 27 28 29 28 27 27 29 28 28 26 27 28 30 33 34 35 32 31
11 15 27 25 20 17 18 19 16 13 12 15 12 13 13 11 14 14 14 17 22 26 27 27 29 29 30 29 29 29 29 29 28 29 29 28 31 30 28 30 33 36 36 36

GFSNW_con_lsi_036.txt.gz
Lid_Strength_Index
4 2 2 1 2 3 4 7 10 6 2 9 9 12 10 9 9 10 11 11 12 14 14 16 17 16 14 13 12 15 13 15 20 17 16 16 16 16 16 18 20 21 20 19
3 2 1 1 2 2 5 9 10 7 7 13 12 10 10 10 12 11 12 12 12 12 13 14 15 15 13 12 12 13 13 17 23 20 17 17 17 16 16 16 18 22 21 19
3 3 3 1 1 2 5 9 12 10 9 10 11 12 12 12 11 11 11 11 12 13 14 13 15 15 14 13 13 11 11 16 18 19 18 17 18 17 16 17 21 20 17 16
4 4 4 4 4 4 5 9 11 11 14 12 11 11 12 13 13 11 11 12 12 12 14 13 15 15 14 13 11 13 13 18 18 18 17 17 17 17 17 18 16 17 15 16
4 4 4 4 5 5 9 11 12 11 12 10 11 12 13 14 13 12 13 13 12 12 14 13 16 14 14 14 14 14 15 18 18 20 17 17 18 17 17 16 17 17 17 17
4 4 5 5 5 6 11 11 11 12 12 12 12 13 13 13 11 11 11 11 12 13 12 12 13 13 12 12 14 15 15 17 19 19 20 19 19 18 17 17 16 15 17 14
2 3 4 4 5 6 9 10 11 13 15 14 12 12 11 11 11 12 13 12 12 14 13 13 14 15 15 14 16 14 17 18 17 23 20 22 18 20 18 15 15 16 18 19
2 2 3 3 4 6 8 8 10 13 15 13 15 14 13 12 13 15 14 15 14 13 14 16 17 18 16 18 19 17 16 16 21 22 22 19 19 20 20 19 19 17 16 15
2 2 2 3 4 4 7 8 8 11 13 14 12 14 14 15 17 17 18 16 14 14 15 16 19 21 19 21 22 18 16 16 16 23 22 23 20 20 18 17 21 18 15 16
1 1 1 2 3 4 7 8 7 10 14 12 12 14 14 13 14 17 17 17 16 15 17 20 19 20 18 21 23 23 20 20 18 22 21 21 19 18 17 22 19 20 18 17
1 1 1 1 2 3 7 10 8 10 13 13 12 12 14 14 13 16 16 16 16 17 17 17 19 20 20 21 21 21 21 21 22 21 22 22 17 17 18 16 16 16 16 15
1 1 1 1 1 1 4 9 8 9 13 13 11 11 11 11 10 13 15 14 16 14 16 18 19 21 21 21 23 19 21 19 21 19 19 17 15 15 14 13 14 14 14 14
1 1 1 1 1 1 3 7 8 8 14 14 14 14 11 10 10 11 14 15 14 14 13 17 18 20 19 23 23 21 19 19 19 19 18 16 14 13 12 12 12 12 12 13
1 1 1 1 1 1 2 6 7 8 12 17 15 13 12 10 10 12 12 13 13 14 14 17 19 20 16 20 18 19 18 18 20 19 16 14 13 12 11 11 11 12 12 12
0 0 0 0 0 1 2 4 5 5 9 15 16 14 12 11 11 12 12 12 13 15 17 19 21 17 17 19 17 20 17 17 18 18 13 13 12 11 10 12 12 12 12 13
-0 0 0 -0 0 0 3 8 5 4 5 12 17 12 14 11 10 11 11 12 12 14 15 17 15 13 14 21 23 15 14 14 13 13 11 11 11 11 11 12 12 12 12 11
-0 -0 -0 -0 -0 2 6 8 6 3 4 9 16 18 13 11 12 13 12 11 12 12 14 17 13 13 13 19 20 13 13 12 12 11 11 13 12 11 11 10 10 12 13 13
-0 -0 -0 0 1 1 5 3 2 2 6 8 12 19 14 10 12 13 11 13 14 14 13 12 15 12 12 18 14 13 12 12 12 11 10 9 10 11 11 12 14 15 14 15
-0 -0 -0 2 5 7 6 1 1 3 6 10 11 16 18 11 11 11 12 9 13 10 13 14 12 14 16 14 13 13 12 12 11 12 12 12 12 10 12 14 17 15 14 16
-0 1 6 8 5 2 2 5 7 7 8 8 12 22 18 12 14 14 14 13 14 14 14 11 12 16 12 12 12 11 10 10 11 15 15 19 17 13 13 14 14 13 15 17
4 7 8 6 1 5 8 10 12 10 12 9 14 17 16 14 17 17 11 13 12 15 16 15 17 19 12 10 10 10 9 10 11 9 10 13 13 13 14 16 17 18 19 21
5 5 3 4 7 10 12 12 12 14 15 16 13 16 15 16 13 13 11 13 13 20 17 16 22 16 13 13 10 9 11 13 14 16 13 17 17 19 19 19 21 23 23 23
5 7 8 9 10 14 14 15 19 16 21 15 17 16 14 14 12 13 14 15 15 14 15 16 18 15 19 21 20 18 22 22 21 23 22 22 23 24 25 25 25 26 27 29
9 10 13 14 14 15 14 20 21 19 19 15 18 13 14 16 15 13 17 16 16 18 18 21 21 25 26 25 25 27 24 26 24 25 25 25 25 27 27 27 27 26 28 30
11 11 15 18 22 25 25 24 23 20 21 15 16 16 11 15 13 12 14 16 17 20 21 24 27 27 28 27 28 28 29 29 29 30 29 28 28 28 31 31 29 29 29 30
11 14 17 22 20 22 23 24 19 15 12 13 12 15 13 13 13 15 15 16 20 21 27 28 27 29 30 31 31 31 32 32 31 29 27 28 28 29 32 32 32 30 29 30
13 20 28 27 23 21 23 22 16 12 11 12 11 13 15 12 14 15 16 17 20 23 24 26 27 28 29 30 32 32 33 32 32 32 31 32 31 31 29 29 31 29 30 30

GFSNW_con_lsi_042.txt.gz
Lid_Strength_Index
1 1 2 2 3 3 4 6 10 3 2 9 9 12 10 9 9 9 9 10 10 13 13 14 14 14 12 11 11 13 11 13 16 16 14 14 13 14 14 15 18 17 17 15
1 1 2 2 2 2 4 8 8 5 4 12 12 9 10 9 10 9 9 10 10 10 12 14 13 13 12 11 11 12 12 14 17 16 15 15 16 15 14 13 14 16 17 14
2 1 2 2 2 2 3 8 13 9 8 7 10 11 11 12 9 9 9 9 10 12 12 12 12 13 13 12 11 10 10 13 14 16 14 13 16 15 14 14 15 15 15 13
2 2 2 2 2 3 3 7 10 9 12 10 10 10 10 12 12 10 9 10 10 11 13 12 12 11 13 13 12 12 12 15 13 13 13 14 14 14 15 15 14 15 13 14
2 1 2 2 2 3 6 9 11 11 10 9 10 10 11 12 11 11 11 11 11 10 12 11 13 11 12 12 13 13 13 14 14 15 14 15 16 14 14 14 13 13 13 13
1 1 1 2 2 4 9 9 10 9 11 11 11 11 11 12 10 10 10 10 10 12 10 10 12 12 11 12 13 14 14 14 16 17 14 17 19 16 15 14 13 13 15 12
1 1 1 2 2 3 7 9 10 11 13 12 11 10 10 10 10 11 10 9 10 11 11 11 12 14 14 14 15 13 15 15 15 18 18 21 16 16 13 14 14 14 15 14
1 1 1 1 2 3 5 8 10 13 14 12 13 11 10 10 10 11 12 12 12 10 12 15 16 17 16 18 18 16 14 14 19 19 19 16 19 19 16 16 15 14 14 14
1 1 1 1 2 2 5 6 7 10 13 14 12 14 13 12 13 16 16 15 13 12 14 15 18 18 16 19 19 17 16 15 15 20 19 20 15 17 17 14 17 15 13 14
1 1 0 0 1 2 4 6 5 8 13 12 12 13 14 12 14 15 16 15 15 14 15 16 17 16 15 18 19 19 18 18 17 18 18 17 14 17 17 18 15 15 13 14
1 1 0 0 0 1 4 6 5 8 10 11 12 11 13 13 12 14 14 14 15 15 16 16 17 18 17 17 18 18 17 18 18 18 18 19 17 18 17 14 16 15 15 15
1 1 1 0 0 1 3 7 6 7 9 10 10 11 10 10 10 13 14 13 14 12 13 14 16 18 19 17 18 18 17 14 16 15 15 17 16 15 14 14 13 15 15 15
2 1 1 1 0 1 3 6 6 8 10 10 11 12 10 9 9 8 12 13 12 12 12 13 15 17 16 18 17 19 18 17 17 15 17 17 16 15 14 15 14 14 14 14
2 2 1 1 0 0 2 5 5 6 10 12 12 11 11 9 9 9 10 11 11 12 11 13 14 15 15 16 16 16 16 17 18 18 17 16 15 14 14 14 14 15 14 14
1 2 1 1 0 0 2 4 5 4 7 12 12 12 11 10 9 11 10 10 11 12 14 14 15 15 15 16 16 17 16 17 17 17 15 14 14 12 13 13 13 13 13 14
2 1 1 1 -0 -0 3 8 5 4 4 9 13 11 11 10 10 11 12 12 12 12 13 14 15 14 14 16 17 15 15 14 13 14 12 13 12 12 12 12 12 12 12 12
1 1 1 1 -0 1 6 7 5 3 3 9 12 13 11 11 11 11 11 11 11 11 13 14 14 14 13 16 17 15 14 13 13 11 12 13 13 12 12 12 11 12 13 12
1 1 0 -0 -0 0 5 3 2 2 7 8 14 15 13 10 12 12 11 12 11 11 12 12 13 12 13 16 14 13 12 11 12 11 11 10 11 11 11 12 13 14 13 13
1 0 -0 1 2 7 6 1 0 3 5 9 13 15 15 10 11 10 10 11 13 11 13 12 12 14 16 13 13 12 12 12 10 11 12 13 12 12 13 13 15 13 12 13
-0 1 6 7 6 2 1 5 7 8 7 7 12 14 14 11 11 12 12 11 13 15 13 11 13 14 11 11 11 11 11 10 12 14 14 16 14 13 13 13 11 11 10 12
3 6 7 4 1 5 7 10 9 10 11 10 14 14 13 10 13 13 11 13 12 16 14 13 15 15 14 19 18 18 18 17 14 12 11 11 10 10 11 12 12 12 13 15
4 4 4 5 7 9 11 12 11 12 13 14 15 14 12 11 9 10 11 13 13 16 13 14 17 15 22 23 23 22 22 23 20 19 17 15 15 17 15 16 17 18 19 20
4 6 7 8 10 14 14 16 15 14 15 14 13 13 11 11 9 11 11 14 15 14 14 16 15 22 23 26 26 26 25 24 23 22 21 21 22 23 22 23 23 23 24 24
8 10 14 12 14 13 13 14 14 14 14 12 11 13 11 11 12 12 14 15 14 16 17 17 21 25 27 27 27 29 28 28 26 26 25 25 25 26 26 26 25 25 26 26
11 11 15 14 20 21 23 24 18 17 12 11 12 12 11 13 12 12 15 17 17 16 17 20 24 26 27 28 29 30 30 30 29 28 27 27 27 28 29 29 27 27 27 26
14 18 17 20 16 18 18 18 16 16 13 13 12 14 13 14 13 15 16 17 18 18 23 24 25 27 29 29 30 30 30 31 30 29 28 27 28 28 29 29 28 27 26 27
17 21 23 23 19 20 20 20 16 13 12 14 15 18 16 12 15 18 21 19 23 23 24 24 26 27 28 28 28 30 30 30 30 30 30 29 29 29 26 27 28 27 27 27

GFSNW_con_lsi_045.txt.gz
Lid_Strength_Index
3 2 1 1 1 1 2 4 10 2 1 10 9 12 10 9 9 7 8 8 9 10 10 12 12 12 10 9 9 12 10 11 14 14 11 11 11 12 13 15 17 16 16 15
3 3 2 1 2 1 3 7 8 3 3 12 12 10 10 9 9 9 9 9 9 8 10 12 11 10 8 9 10 11 10 13 18 15 15 14 15 13 12 13 14 16 17 15
2 2 2 1 2 2 3 6 10 8 7 7 10 11 11 11 8 9 8 9 8 10 10 9 10 10 11 10 10 9 9 13 15 17 13 12 15 14 13 14 16 15 15 13
1 2 2 2 2 2 3 6 10 8 12 11 10 10 10 12 12 9 9 10 10 11 13 12 11 10 13 12 11 11 10 15 13 12 11 11 13 14 14 15 14 15 13 13
1 1 1 1 2 2 4 8 8 8 8 9 10 10 11 12 11 10 11 11 10 9 12 11 13 10 11 12 12 13 12 15 13 15 12 12 14 13 13 14 14 13 12 12
0 1 0 1 1 2 4 5 7 8 9 10 11 12 11 11 9 9 8 10 10 11 10 8 9 10 9 9 12 14 14 15 16 17 13 14 18 15 13 13 12 12 14 12
1 0 0 0 0 1 2 4 6 11 12 10 11 10 10 11 9 11 10 9 10 10 10 11 12 14 14 13 14 13 15 15 15 17 16 21 14 11 12 12 12 11 12 13
1 0 0 0 -0 0 3 4 6 10 12 10 10 10 10 9 9 10 10 10 9 9 11 15 16 16 16 16 16 15 13 14 16 18 18 14 14 17 14 13 13 10 12 13
2 1 0 0 0 -0 2 3 3 7 11 11 10 10 10 11 11 13 14 14 13 11 13 15 17 18 15 17 18 17 16 14 15 17 19 20 16 14 13 11 16 12 12 13
2 1 1 0 0 -0 2 2 2 6 10 8 10 12 12 11 12 13 15 15 14 14 15 15 15 16 14 17 18 19 18 17 18 16 17 15 14 16 14 16 15 14 12 13
2 1 1 1 0 -0 2 4 2 5 9 8 9 10 12 12 13 15 14 14 15 15 15 14 15 15 15 16 16 17 17 17 17 16 17 18 15 17 15 13 15 13 11 12
1 2 1 1 0 0 2 5 3 4 7 8 8 8 9 10 10 12 13 13 14 13 14 13 14 16 16 15 17 16 17 14 15 14 15 17 15 15 14 13 12 14 13 12
0 1 1 1 0 -0 1 4 4 5 7 8 9 10 8 8 9 8 12 12 12 12 12 12 13 15 15 17 16 16 16 16 15 15 16 16 15 13 14 14 14 13 13 13
-0 0 1 1 0 -0 1 5 4 4 6 9 9 8 9 8 8 9 9 10 11 11 11 12 13 14 15 15 15 15 16 15 16 18 17 16 14 14 13 13 14 14 14 13
-0 -0 -0 1 0 0 0 1 3 3 5 9 9 10 9 9 8 9 9 10 10 11 12 13 13 14 15 15 16 16 16 16 16 16 15 13 14 12 11 13 14 14 14 15
-0 -0 -0 0 0 -0 3 8 4 3 3 8 11 9 10 10 9 9 8 9 10 11 12 13 14 14 13 14 14 14 13 13 12 13 12 12 11 10 11 13 13 13 13 13
-0 -0 -0 -0 -0 1 6 6 4 2 2 8 11 11 10 9 9 10 10 10 11 11 13 13 14 14 12 15 16 14 13 13 13 12 13 14 13 13 12 12 12 12 14 13
-0 0 0 -0 -0 1 4 2 1 2 6 7 11 14 12 9 11 11 10 11 10 10 11 12 13 14 13 16 14 13 12 12 12 12 12 12 12 13 13 13 13 14 14 13
-0 -0 -0 1 2 6 5 0 0 2 5 9 11 14 14 9 10 10 10 9 12 10 12 12 11 13 15 13 13 12 11 12 11 11 12 13 12 12 12 13 14 13 12 13
-0 1 4 6 5 2 0 4 6 7 7 7 9 9 13 10 10 11 11 10 12 14 12 11 13 13 14 16 17 17 17 17 13 13 13 14 14 13 13 13 12 12 12 13
2 5 6 4 1 5 7 9 9 9 10 9 11 10 12 9 11 12 10 12 11 15 13 13 14 14 18 20 20 20 20 19 18 18 16 14 13 11 11 12 12 13 14 15
3 3 4 6 6 8 10 11 10 10 12 13 11 11 9 10 8 10 11 12 12 15 12 13 15 16 22 23 23 23 23 24 22 20 19 18 18 18 17 16 17 19 19 19
3 5 7 8 9 13 14 15 14 14 12 12 11 12 11 10 8 10 11 13 14 11 13 14 14 21 23 25 25 26 25 25 23 22 22 21 22 23 23 21 22 21 23 23
6 9 13 12 13 12 11 11 11 11 10 11 9 11 10 10 11 11 13 13 12 14 16 16 19 24 26 26 26 28 28 27 26 25 24 24 24 25 26 25 24 24 24 24
8 9 14 13 17 17 18 17 13 13 8 9 10 10 10 11 12 12 14 16 16 14 15 19 22 25 27 27 28 29 29 28 27 26 26 26 26 26 27 27 26 25 25 25
14 17 15 16 14 16 15 13 14 12 9 8 9 11 12 13 12 14 15 15 16 18 22 23 24 27 28 28 29 29 29 28 28 28 27 27 28 28 27 27 26 26 25 25
16 20 19 20 17 18 18 15 15 13 10 12 11 14 14 12 15 18 23 22 24 23 24 24 26 28 29 29 29 30 29 28 27 27 27 27 27 25 25 26 26 25 26 26

GFSNW_con_lsi_048.txt.gz
Lid_Strength_Index
1 1 1 2 1 1 2 4 10 2 1 9 9 12 10 8 9 7 8 9 10 11 11 13 13 14 11 9 9 12 10 12 17 16 13 13 12 14 14 16 18 17 18 16
1 2 2 2 2 1 3 7 7 2 3 12 12 9 10 8 9 9 9 9 9 9 10 12 12 11 10 9 10 11 10 14 18 17 16 14 15 14 13 13 15 17 19 17
0 1 1 2 1 1 3 7 10 7 6 7 10 11 11 11 8 9 9 9 9 10 11 10 12 12 11 9 9 9 9 13 14 17 15 14 17 15 14 14 17 17 16 15
0 0 1 1 1 1 3 7 9 7 11 10 9 10 10 12 12 9 9 10 10 11 13 12 12 10 12 12 10 10 10 14 13 13 12 13 15 15 15 15 15 16 15 14
-0 0 0 0 -0 -0 4 8 9 7 8 8 9 10 11 12 11 10 11 12 10 10 12 12 13 11 11 12 13 12 11 15 13 15 14 13 14 13 15 15 14 14 14 14
1 0 -0 -0 -0 -0 4 4 6 8 9 9 10 10 10 11 10 9 8 9 10 11 10 8 8 9 9 10 13 14 13 15 16 17 14 14 17 14 13 13 14 14 16 13
2 1 0 -0 -0 -0 2 3 5 10 12 10 10 9 9 11 10 11 9 8 10 8 9 10 11 13 13 11 11 12 15 15 15 17 15 21 15 13 12 12 12 12 13 14
2 1 1 0 -0 -0 2 2 5 9 12 10 10 10 9 9 9 10 10 10 9 8 11 14 15 16 15 15 15 14 12 14 16 18 18 15 14 17 16 15 14 11 11 12
1 1 1 1 -0 -0 1 2 2 6 10 12 9 9 9 10 10 12 12 13 12 10 13 15 17 18 16 18 18 17 15 13 15 17 19 20 19 18 15 13 17 14 12 12
-0 0 1 1 1 -0 1 3 1 5 9 8 8 10 10 8 9 11 13 14 14 13 14 15 16 16 15 18 20 20 18 17 17 16 17 16 18 18 16 18 18 18 16 15
-1 -0 0 1 1 1 1 3 1 4 8 8 7 7 10 10 10 11 13 13 14 15 15 14 15 15 16 16 16 18 17 18 18 17 17 19 17 18 16 16 17 16 15 15
-0 -0 -0 -0 1 1 1 4 2 3 7 8 7 6 7 7 8 10 12 12 13 12 13 14 14 17 16 16 18 16 17 15 16 15 15 17 17 17 15 15 15 16 15 15
-0 -0 -0 -1 -0 -0 1 3 4 5 9 8 9 10 8 7 7 7 11 11 11 12 12 13 13 16 14 17 17 18 17 16 16 16 16 17 16 14 15 15 15 16 16 15
-0 -0 -0 -1 -1 -0 0 3 3 4 7 10 12 8 9 6 6 7 8 9 10 11 12 13 14 15 15 16 16 16 17 15 17 19 18 16 15 15 14 14 15 16 16 16
-0 -0 -0 -0 -1 -0 0 1 2 2 6 10 12 11 10 8 7 7 8 9 11 12 13 13 15 15 15 16 16 16 17 16 16 16 15 14 14 12 12 13 14 15 16 16
-0 -0 -0 -1 -1 -1 2 7 3 2 2 9 13 10 10 10 8 8 8 9 10 10 11 13 14 14 14 15 16 15 14 14 13 14 13 12 13 11 12 13 14 14 14 15
0 -0 -1 -1 -1 1 5 6 4 1 2 8 12 13 10 10 10 11 10 10 10 10 13 13 14 15 13 15 18 14 14 14 15 13 13 15 15 15 13 13 14 14 15 15
0 0 -1 -1 -1 0 4 2 1 1 7 7 11 14 12 10 11 14 11 11 11 11 12 14 15 14 13 17 14 15 14 14 14 14 14 14 14 15 15 15 16 17 16 16
1 0 -1 1 2 5 5 1 1 1 5 9 12 16 15 10 10 12 13 11 15 12 15 14 14 16 18 17 16 17 18 16 16 15 16 16 16 15 16 16 17 16 15 16
0 2 4 7 4 -0 0 4 6 7 7 7 10 13 15 10 11 12 13 13 17 20 16 12 18 20 17 19 20 20 20 19 18 15 15 16 16 15 15 15 15 15 15 16
4 6 7 4 -0 3 6 9 9 9 10 9 11 14 13 10 15 15 12 17 17 18 19 19 22 22 19 21 21 21 21 21 21 20 18 18 18 17 17 16 18 18 19 20
4 3 2 3 6 7 9 11 9 10 13 13 14 13 12 12 10 15 15 17 15 21 17 20 22 21 24 25 25 24 25 26 25 24 23 22 22 23 22 23 23 24 23 23
3 5 6 7 8 12 13 14 14 15 13 12 14 14 12 13 11 14 12 20 20 13 20 21 24 23 27 28 28 28 28 27 27 26 25 25 26 26 27 26 26 26 26 26
7 10 11 11 12 11 13 12 12 13 12 12 11 12 12 14 15 13 15 14 16 18 23 23 26 29 31 29 29 32 30 30 29 29 28 27 27 28 28 28 27 28 28 28
8 8 12 12 16 17 20 18 14 13 9 10 11 12 11 14 13 13 15 17 18 20 22 27 27 29 29 30 31 32 31 31 30 30 30 29 29 29 30 30 30 29 28 29
13 17 15 16 15 16 17 14 13 10 9 10 10 12 13 14 14 16 17 17 22 26 30 28 27 30 32 33 32 31 31 32 33 32 32 30 30 31 32 32 30 30 29 28
16 20 19 20 18 20 21 19 19 16 12 15 12 14 15 13 17 22 27 29 29 27 27 27 28 30 31 32 32 33 33 33 34 34 33 33 32 31 29 29 29 27 27 27